Location: Tucson
(32.2217°N, 110.9265°W)
Time: 12:36:49
(UTC-07:00)

A-11 Canister half - Pass Details

Date: 27 October 2021
Orbit: 1516 x 1684 km, 47.2° (Epoch: 04 December)

Event Time Altitude Azimuth Distance (km) Brightness Sun altitude
Rises 20:33:58 0° 292° (WNW) 4,913 12.5 -37.8°
Reaches altitude 10° 20:37:40 10° 302° (WNW) 3,908 11.7 -38.6°
Maximum altitude 20:46:26 33° 3° (N) 2,475 10.0 -40.4°
Enters shadow 20:46:28 33° 4° (N) 2,475 10.0 -40.4°
